Regional Weather Roundup
Issued by NWS

Home | Current Version | Previous Version | Text Only | Print | Product List | Glossary Off
Versions: 1 2 3 4 5 6 7 8 9 10 11 12 13 14 15 16 17 18 19 20 21 22 23 24 25 26 27 28 29 30 31 32 33 34 35 36 37 38 39 40 41 42 43 44 45 46 47 48 49 50

000
ASUS43 KTOP 251508
RWRKS

WEATHER ROUNDUP FOR KANSAS
NATIONAL WEATHER SERVICE GOODLAND KS
1000 AM CDT MON MAY 25 2015

NOTE:  "FAIR" INDICATES FEW OR NO CLOUDS BELOW 12,000 FEET WITH NO
SIGNIFICANT WEATHER AND/OR OBSTRUCTIONS TO VISIBILITY.

KSZ001>006-013>018-027>032-041>047-251600-
NORTHWEST KANSAS

CITY           SKY/WX    TMP DP  RH WIND       PRES   REMARKS
GOODLAND       MOSUNNY   59  50  72 NW12      29.85S
HAYS           CLOUDY    61  52  72 SE10      29.81F
HILL CITY      MOSUNNY   63  55  75 VRB6      29.82F
RUSSELL        SUNNY     64  59  83 SE15      29.79F
$$

KSZ061>065-074>080-084>089-251600-
SOUTHWEST KANSAS

CITY           SKY/WX    TMP DP  RH WIND       PRES   REMARKS
DODGE CITY     CLOUDY    61  58  90 CALM      29.81R FOG
ELKHART          N/A     62  49  62 N3          N/A
GARDEN CITY    SUNNY     59  54  83 N12       29.79F
GREAT BEND     CLOUDY    61  55  82 E5        29.81F
LIBERAL        SUNNY     61  54  77 N6        29.85R
PRATT          FOG       61  61 100 SE3       29.82S VSB 3/4
$$

KSZ066>073-081>083-090>101-251600-
SOUTHEAST KANSAS

CITY           SKY/WX    TMP DP  RH WIND       PRES   REMARKS
CHANUTE        PTSUNNY   69  66  90 SE8       29.90F
COFFEYVILLE    CLOUDY    69  67  93 SE7       29.92F
HUTCHINSON     CLOUDY    64  60  87 SE9       29.83S
MEDICINE LODGE   N/A     72  65  78 S16G22    29.81F
NEWTON         CLOUDY    63  55  77 SE16      29.85F
PARSONS        MOSUNNY   71  68  90 SE9       29.93F
WICHITA INTL   CLOUDY    67  63  87 SE17      29.82F
WICHITA JABRA  CLOUDY    66  63  90 SE15G23   29.83F
WICHITA MCCONL CLOUDY    67  64  92 SE15      29.83F
WINFIELD       CLOUDY    69  67  93 S13       29.86F
$$

KSZ007>012-019>026-033>040-048>060-102>105-251600-
NORTHEAST KANSAS

CITY           SKY/WX    TMP DP  RH WIND       PRES   REMARKS
CONCORDIA      CLOUDY    63  58  83 S10       29.82F
EMPORIA        CLOUDY    67  59  75 SE12      29.87F
LAWRENCE       SUNNY     68  61  78 SE12      29.88S
MANHATTAN      CLOUDY    68  61  78 S7        29.84S
OLATHE IND     SUNNY     67  61  81 SE12      29.91R
OLATHE EXE     SUNNY     67  62  84 SE10      29.90F
SALINA         CLOUDY    65  60  84 SE9       29.83F
TOPEKA BILLARD SUNNY     68  61  78 SE13      29.86S
TOPEKA FORBES  SUNNY     69  60  73 SE12      29.86F
$$


USA.gov is the U.S. government's official web portal to all federal, state and local government web resources and services.